RH
76 45 37 31 29 41 49 31 24 22 74 76 70 68 80 90 78 92 88 86 80 82 83 85 88 88 87 84 84 85 86 88 80 83 92 93 92 91 91 91 92 88 84 83 83 81 79 79 82
62 30 28 34 37 40 29 28 44 57 72 60 57 68 80 92 76 85 86 79 73 74 79 82 84 85 86 85 87 86 85 84 84 86 88 90 91 92 91 92 92 90 86 82 81 81 81 86 87
41 31 25 38 49 38 33 24 33 69 66 49 65 62 69 87 70 75 72 68 58 63 66 68 77 78 80 79 83 84 85 81 74 78 80 81 84 88 91 93 93 92 89 85 82 82 87 90 90
21 20 28 34 54 31 27 19 36 66 61 53 64 83 65 55 63 59 54 48 50 57 63 75 72 71 66 67 69 68 75 74 69 74 76 75 77 80 86 90 92 90 89 88 87 87 91 92 93
20 26 31 46 38 27 23 19 24 40 52 56 57 83 74 60 61 54 54 56 56 60 63 70 75 69 61 60 64 67 72 68 67 69 69 70 72 72 72 74 75 76 77 83 89 92 94 95 94
14 24 28 30 24 19 19 25 32 43 52 57 66 68 69 57 58 57 55 58 64 66 67 64 66 66 70 68 66 72 72 66 66 66 68 71 70 71 71 73 74 74 74 80 87 93 93 93 94
15 20 24 27 21 20 20 23 28 36 42 53 53 74 69 58 54 52 53 56 60 66 68 70 70 66 70 70 70 71 67 65 67 67 66 67 69 69 69 71 70 71 72 73 73 75 84 94 94
18 20 33 25 22 24 19 20 25 33 37 36 51 77 80 61 52 50 50 56 67 70 71 69 71 73 73 76 68 67 64 66 68 64 66 66 71 69 69 72 70 70 71 71 74 76 77 82 95
17 18 23 22 22 19 14 22 31 41 44 51 53 64 58 53 50 53 58 61 66 67 73 74 74 75 74 68 67 73 67 67 71 72 68 76 79 83 79 71 70 69 74 75 76 77 77 76 78
16 21 19 17 16 16 13 17 29 40 50 56 65 61 55 52 52 55 57 61 65 69 73 76 76 78 76 60 79 79 70 77 77 78 81 83 84 76 72 74 72 74 73 71 72 73 74 74 75
22 19 18 14 16 15 14 16 26 32 38 52 65 67 58 53 53 55 56 60 66 70 74 76 75 79 79 80 83 85 84 82 80 80 83 86 81 85 82 81 80 80 72 71 70 74 72 78 82
22 18 18 16 14 13 12 21 29 32 25 36 57 57 54 56 57 54 59 64 66 70 75 76 75 75 79 81 84 84 81 81 80 83 79 83 83 83 83 81 81 79 79 77 77 79 83 84 81
22 20 18 16 15 14 13 13 20 31 44 48 51 51 54 53 52 55 61 66 68 74 78 77 74 77 77 79 83 83 82 79 84 79 80 79 80 83 81 82 79 80 78 80 82 82 81 82 81
22 21 19 18 16 16 13 16 30 33 42 45 46 48 47 46 50 60 64 69 69 73 76 73 75 76 72 78 78 83 81 82 80 75 74 77 79 78 80 81 80 79 77 77 80 80 79 81 83
22 22 20 18 18 16 15 24 28 31 39 43 42 39 42 46 50 57 65 69 70 76 73 72 73 72 74 77 78 80 78 77 80 73 76 74 74 77 84 82 81 79 78 79 79 81 81 80 75
27 26 27 17 15 16 15 16 17 35 36 42 39 38 45 49 52 61 66 70 78 73 72 72 62 74 75 76 79 73 76 78 76 76 77 74 74 74 82 80 82 80 78 77 81 81 85 85 82
32 28 28 22 20 17 17 18 24 37 36 39 38 46 49 54 61 66 68 73 76 75 72 73 74 76 76 76 80 80 75 77 75 76 75 74 76 76 78 83 81 78 77 79 78 77 76 80 84
30 32 41 31 24 21 22 22 24 38 32 36 45 54 54 58 66 66 69 72 75 76 74 72 74 76 77 79 80 77 78 77 78 73 74 73 77 76 78 80 80 78 80 77 74 74 74 76 79
30 34 33 30 22 27 24 25 24 31 36 36 46 58 57 61 67 69 70 74 74 76 74 75 77 79 80 82 86 86 87 83 81 72 73 74 76 76 78 78 80 82 79 75 75 78 81 81 77
34 35 32 27 25 29 28 29 25 31 34 32 38 53 55 71 71 70 75 77 76 78 77 77 77 77 78 84 86 85 87 85 82 80 76 75 75 77 73 79 82 75 78 78 80 81 86 82 80
33 33 32 28 30 32 31 32 27 27 33 33 36 46 56 69 74 73 72 80 82 81 80 78 78 79 79 78 78 80 80 78 79 80 80 79 75 76 82 76 79 80 77 81 82 82 85 93 82
33 26 30 33 38 38 30 46 34 25 45 51 49 57 65 68 72 70 73 79 81 83 78 78 73 74 78 82 84 85 87 91 91 92 87 85 78 77 80 79 79 75 79 82 78 76 86 89 92
31 32 34 36 40 46 43 37 35 58 55 57 59 61 69 77 76 77 75 74 75 75 82 77 76 78 83 86 87 91 90 92 89 91 91 89 86 81 80 84 81 85 85 81 81 85 87 85 90
28 33 40 49 45 51 40 38 42 71 70 61 59 59 65 71 72 72 70 68 71 75 78 82 80 82 83 84 85 89 92 87 93 95 96 94 87 85 84 83 86 86 84 84 82 86 84 87 86
27 39 62 67 70 54 38 38 42 71 66 60 62 62 64 65 68 73 73 64 62 72 81 81 79 83 83 83 84 81 84 86 89 94 95 95 90 86 87 88 89 89 88 84 83 87 83 85 90
34 36 58 54 64 53 36 43 73 73 63 59 58 58 59 63 66 70 69 68 64 72 80 81 80 83 84 84 79 80 83 88 87 88 93 95 94 87 85 83 85 85 86 86 85 86 84 79 87
36 43 34 50 55 65 51 75 71 65 68 69 64 60 72 71 71 72 72 74 80 84 87 87 82 80 81 84 85 86 86 86 85 86 86 90 89 69 84 78 80 83 84 84 84 86 86 83 88
30 26 46 60 55 64 60 62 86 81 75 74 83 78 71 82 80 80 87 90 89 91 91 92 87 84 82 80 84 85 91 92 87 82 85 84 85 82 82 81 76 78 82 84 84 86 85 85 86
38 46 47 48 68 69 73 73 69 72 70 77 76 79 87 80 87 88 92 92 91 91 90 95 90 89 89 84 85 87 88 91 91 84 86 89 87 85 83 82 72 79 80 86 86 88 88 87 89
37 46 51 82 58 76 86 79 63 75 66 75 77 84 87 88 92 94 94 95 93 83 82 92 95 93 96 96 86 89 94 97 95 93 88 90 92 89 89 87 79 78 82 89 91 90 92 94 93
Wind_Speed
6 6 2 5 5 6 4 7 3 4 5 3 4 4 9 4 4 3 2 6 6 7 6 8 13 12 11 11 13 13 14 15 12 11 9 8 7 5 4 3 2 1 2 2 1 1 1 1 1
3 1 5 3 5 4 6 5 6 3 8 7 10 4 5 4 4 6 3 5 5 6 5 6 12 12 12 11 12 13 14 14 13 13 14 13 12 8 5 3 2 3 2 3 5 5 3 3 3
1 3 4 5 4 4 4 3 5 2 12 4 5 6 4 6 6 4 7 7 7 8 6 8 8 12 13 12 13 14 14 14 14 13 12 10 10 10 10 8 6 5 6 6 6 6 5 5 5
2 5 5 5 3 6 5 9 5 5 1 6 7 7 4 3 1 5 10 10 10 10 7 8 9 15 14 13 14 14 15 15 15 15 15 15 14 13 11 11 10 10 9 9 9 7 7 7 6
5 3 4 3 4 6 4 8 9 9 4 4 6 8 3 3 8 12 10 8 9 8 7 7 14 14 14 15 16 16 17 17 17 16 16 16 16 15 15 16 15 14 15 14 10 9 8 8 7
5 4 5 1 5 6 4 5 3 4 3 5 6 7 3 9 9 10 10 10 9 9 7 7 13 16 16 15 17 17 17 17 17 17 16 16 17 17 16 16 17 16 16 17 14 11 10 9 9
5 4 3 3 4 6 4 1 5 3 4 4 4 6 3 9 9 10 10 10 10 8 7 7 9 12 16 17 17 16 17 16 16 17 17 17 17 17 16 16 17 16 16 17 17 17 16 12 10
6 5 2 3 3 4 4 3 2 3 3 3 7 8 7 10 12 10 10 10 9 7 8 8 7 7 7 7 17 16 17 16 16 17 16 17 17 17 17 17 18 17 17 17 18 18 18 18 13
4 5 1 4 2 4 3 3 4 3 6 4 6 6 7 17 14 12 10 6 6 7 7 7 7 7 7 7 9 12 15 16 15 14 17 12 7 7 11 16 18 18 19 17 18 19 18 18 16
5 4 7 5 3 3 4 2 6 3 2 4 4 10 18 17 13 12 8 7 5 5 6 6 7 7 6 6 6 6 6 6 7 8 8 6 8 8 10 13 18 18 20 19 19 18 17 14 7
1 4 4 3 2 2 3 1 4 7 4 7 12 16 16 16 10 9 6 7 6 5 6 6 6 6 7 6 4 3 3 4 5 8 7 6 6 6 6 5 6 7 15 8 11 9 6 8 7
4 3 1 4 5 5 6 3 2 5 4 5 14 18 15 15 11 9 10 8 6 7 6 6 6 6 6 4 4 4 4 4 5 6 10 6 5 6 6 5 6 7 6 8 7 6 8 8 8
4 4 6 6 7 6 4 4 4 3 4 12 15 14 13 12 9 8 9 8 8 9 6 6 7 6 6 6 4 5 5 6 6 7 9 7 6 5 5 4 5 5 6 6 7 7 7 8 8
3 5 10 6 7 5 5 4 1 2 6 12 15 9 10 11 11 8 9 8 8 8 7 6 7 7 7 6 7 5 5 5 6 7 7 8 6 6 6 6 6 6 7 7 7 7 7 6 6
5 7 9 6 4 4 5 2 9 6 9 13 10 10 10 10 10 10 8 9 9 7 7 7 7 7 7 7 6 6 6 6 7 6 8 9 8 8 7 6 7 7 7 9 8 8 7 8 7
5 4 4 5 9 4 3 10 4 8 15 12 10 11 11 8 7 8 7 8 7 8 9 8 8 7 7 7 6 6 6 6 6 6 6 9 10 10 7 6 6 8 7 7 7 8 9 8 8
5 3 3 8 3 4 3 6 4 3 6 9 9 8 10 10 8 6 6 8 7 8 8 8 8 7 7 7 6 7 8 6 6 5 6 9 9 10 8 7 7 9 7 7 8 8 10 11 9
2 2 4 6 5 7 4 5 5 3 6 7 8 9 10 10 8 8 8 8 9 8 7 7 6 7 6 5 5 5 5 5 4 5 6 8 7 10 8 7 8 8 8 8 9 10 9 9 12
4 4 7 5 4 3 3 5 8 7 5 8 9 9 10 10 6 7 8 9 9 7 8 7 7 6 4 4 3 4 3 3 4 5 7 7 7 9 8 7 8 8 8 11 11 9 11 9 10
7 8 6 5 2 2 5 9 12 6 8 13 14 16 16 10 11 9 7 7 7 7 7 6 7 6 5 3 3 3 2 3 2 3 5 8 8 10 9 9 8 10 8 10 11 11 9 7 9
6 7 5 6 4 1 4 7 4 2 2 5 6 11 12 16 15 10 9 8 7 7 7 6 6 7 6 6 4 3 3 2 3 5 5 6 9 10 10 9 9 9 9 8 10 10 12 8 9
4 4 3 2 2 4 4 7 5 4 5 10 6 11 14 15 11 10 10 8 7 7 6 6 6 7 7 6 6 5 3 3 3 3 4 5 8 9 10 11 9 10 8 10 10 10 9 9 9
4 2 2 1 2 2 3 3 4 4 5 7 6 7 6 8 11 10 8 9 8 7 6 8 8 8 7 7 6 4 5 3 2 3 5 6 5 8 10 9 9 9 8 9 10 10 10 8 7
2 3 5 4 2 2 8 7 5 2 3 3 6 9 12 12 9 8 7 9 9 8 7 6 8 8 7 7 6 7 7 5 4 4 4 4 5 6 9 10 9 8 9 10 9 10 11 10 9
4 5 3 4 3 6 2 3 7 3 7 8 12 8 9 10 10 10 11 9 9 9 8 7 7 8 7 7 7 7 7 5 5 5 4 5 5 5 8 9 9 8 9 10 8 9 10 11 10
6 9 6 5 3 5 5 6 6 1 4 8 11 13 12 13 12 12 12 9 8 9 6 8 8 8 7 7 7 6 5 4 4 4 4 4 4 5 7 8 8 9 9 9 9 7 8 11 10
1 3 6 1 4 1 4 3 3 4 2 6 10 11 13 14 14 10 10 9 9 8 8 8 9 7 7 7 5 5 5 5 5 5 5 3 4 6 7 8 8 9 9 10 9 8 11 10 9
1 0 2 1 4 6 5 5 5 8 10 8 8 13 10 7 8 8 8 7 5 6 6 7 7 8 6 6 5 5 5 5 4 5 6 5 5 6 7 8 9 9 10 10 10 9 10 11 10
4 2 2 1 4 4 4 8 7 14 15 17 16 14 7 10 11 11 9 7 8 5 7 6 7 7 6 6 5 5 4 4 4 6 5 5 5 7 8 8 9 9 10 11 10 11 12 12 12
2 3 3 5 4 3 4 10 3 8 12 9 12 8 8 6 7 8 10 10 8 8 7 8 6 7 6 4 6 5 5 3 5 5 5 5 5 6 6 7 8 8 10 9 10 11 10 10 12
Wind_Direction
303 296 135 43 54 64 277 273 249 273 9 326 60 122 120 43 102 181 297 82 72 61 42 37 71 73 58 50 66 64 62 59 66 60 67 57 55 60 78 92 91 53 1 347 29 50 24 25 12
314 146 46 77 86 61 276 268 304 160 138 112 67 52 56 92 84 117 120 94 83 71 51 50 47 69 65 60 62 67 67 64 57 45 35 34 36 33 22 12 351 315 303 299 298 302 312 306 295
220 47 84 95 100 168 227 247 3 35 148 55 80 48 37 97 96 92 104 106 89 68 43 55 69 66 65 64 66 66 67 65 53 52 48 38 25 18 17 8 344 319 308 299 293 298 301 297 288
79 12 32 82 223 249 216 278 138 165 130 72 100 46 76 328 38 126 126 111 90 73 51 38 48 60 63 64 65 66 67 61 50 49 47 42 41 34 26 12 4 351 329 309 302 295 293 289 283
37 56 59 67 265 260 246 265 166 180 130 107 167 144 66 55 90 106 106 105 88 65 37 24 36 50 57 56 58 59 62 53 48 44 46 43 44 39 34 34 30 23 14 343 319 299 283 279 275
40 93 58 317 267 268 317 332 84 89 82 152 90 107 100 136 110 109 104 91 76 71 51 33 37 41 42 51 55 54 59 47 44 43 42 42 42 39 36 29 26 21 19 14 357 323 295 280 273
104 78 197 232 258 325 353 74 54 75 92 64 104 76 125 144 126 115 105 95 85 76 64 43 39 40 39 46 50 56 53 47 46 44 38 36 36 34 28 26 22 18 17 14 8 8 359 319 279
110 95 9 277 295 281 8 56 59 77 86 81 145 156 182 168 134 113 94 87 80 68 61 52 46 46 44 26 41 51 42 45 45 40 40 35 31 28 25 22 17 12 13 15 8 6 4 355 325
123 64 331 267 284 277 356 136 348 62 90 58 340 140 141 133 126 118 106 80 67 55 47 49 49 44 40 50 40 42 44 41 37 33 30 30 26 20 20 16 12 9 9 14 13 4 1 358 354
79 111 216 221 276 305 340 80 166 90 95 59 47 84 122 130 139 136 134 117 97 80 59 52 47 45 40 45 33 37 36 38 41 35 25 20 27 25 24 19 16 11 8 358 2 2 356 358 344
18 192 217 265 266 293 300 92 142 145 242 199 169 151 140 142 145 135 111 111 112 90 60 46 52 46 43 31 24 29 31 34 38 35 36 28 22 21 17 10 8 6 1 357 352 351 352 338 333
343 229 13 279 337 331 324 137 117 198 240 176 159 149 144 152 155 141 131 132 122 100 91 67 59 60 51 57 45 35 41 30 40 33 28 30 30 27 21 10 3 2 354 345 342 337 329 329 323
191 318 313 296 283 257 308 266 247 244 26 120 138 147 150 147 138 133 129 122 127 107 95 66 60 50 45 51 46 49 39 41 44 41 35 27 21 15 6 9 6 1 345 340 331 327 326 321 317
303 279 287 289 272 238 213 222 231 137 133 129 150 148 148 141 142 128 132 127 111 110 94 72 57 55 55 51 49 41 54 50 47 39 30 30 24 7 1 359 5 1 346 335 326 320 318 309 306
294 324 331 327 312 289 158 73 224 168 154 153 147 142 137 139 137 141 134 128 130 121 113 89 77 57 58 58 48 47 49 50 52 35 25 24 23 9 0 1 356 349 339 331 328 323 323 317 312
350 54 356 286 358 355 140 265 300 168 158 172 149 144 133 121 112 117 119 116 108 101 87 75 73 65 59 51 53 58 43 50 46 32 27 18 16 13 5 359 354 342 338 334 335 334 324 318 314
359 237 249 318 61 358 86 288 295 170 188 174 148 124 123 99 95 108 111 114 101 94 89 76 68 59 60 60 63 60 51 44 36 31 24 16 12 10 7 355 349 346 342 336 340 338 331 322 314
215 275 296 268 307 2 343 294 343 165 177 171 127 132 130 133 144 136 120 108 103 96 89 85 79 73 74 72 72 63 59 44 32 34 30 23 13 9 9 359 351 349 341 340 341 335 333 320 315
278 243 242 259 280 315 237 283 286 210 178 180 150 145 147 147 139 121 112 109 103 83 86 73 74 52 58 65 69 60 57 32 27 35 24 23 25 15 14 3 355 349 350 345 344 332 330 325 325
252 254 250 274 254 259 297 268 261 186 219 204 172 171 163 141 142 130 116 107 97 106 95 88 82 64 50 53 56 86 105 61 53 13 16 19 23 14 15 6 353 1 352 349 347 339 336 331 336
239 216 216 222 317 272 322 297 258 181 264 353 171 163 150 149 147 139 126 115 113 110 112 102 81 76 64 58 55 48 58 39 24 22 17 9 26 17 8 7 7 359 0 355 348 348 349 332 330
235 220 168 199 78 248 33 290 274 299 41 14 30 149 147 146 138 135 135 128 130 119 113 103 92 81 71 58 67 68 69 50 4 358 4 0 20 19 11 1 3 2 356 358 0 354 350 342 337
225 109 142 181 191 120 284 243 257 7 354 15 56 95 104 107 126 138 144 129 134 123 114 106 96 78 70 72 75 73 57 45 19 9 13 6 19 15 9 4 359 5 353 0 356 0 355 357 337
151 98 43 45 113 300 216 165 272 217 237 149 132 137 138 140 148 136 126 127 129 124 112 111 103 90 81 72 66 71 67 47 25 11 26 7 11 9 5 1 6 4 2 2 0 360 360 356 356
138 83 340 340 4 241 211 241 252 303 287 175 155 142 146 150 149 149 153 144 144 130 121 120 106 90 81 77 64 62 64 58 46 31 20 15 15 9 2 4 2 5 0 358 10 3 1 3 355
205 166 165 224 200 254 312 254 257 57 91 131 154 161 163 169 168 167 164 151 137 126 129 123 115 109 99 87 79 75 64 50 43 41 33 25 8 6 2 9 9 9 6 6 6 13 8 8 4
251 164 200 93 354 30 231 292 339 122 168 178 185 187 191 184 177 165 144 150 144 138 128 132 127 113 107 106 114 91 70 60 46 41 36 19 3 22 12 21 17 14 15 14 14 19 13 2 359
83 238 61 341 217 237 264 247 226 194 211 215 234 217 208 170 160 145 146 145 124 124 126 119 114 120 119 120 126 114 104 80 60 51 45 29 8 17 21 24 26 23 21 15 19 21 12 11 4
358 2 25 197 168 209 263 259 210 197 196 208 220 223 205 191 175 162 152 147 138 140 134 128 124 120 122 131 130 121 106 99 78 59 37 25 23 22 28 30 34 33 31 23 26 25 12 12 10
228 261 144 142 258 256 163 266 336 222 209 198 227 220 205 183 162 151 154 154 160 150 145 146 143 137 152 151 130 122 107 102 93 70 50 32 30 25 30 29 41 41 38 28 30 32 14 6 9